This is the latest recevied weather packets stored in our database for station/object KD2DXJ. If no packets are shown the sender has not sent any weather packets the latest 10 day(s).
| Time | Temp. | Humidity | Pressure | Rain* | Wind** | Luminosity | Snow |
|---|---|---|---|---|---|---|---|
| 1778186938 | 10.56° C | 48% | 1008.4 hPa | 0 mm | - | 140 W/m² | - |
| 1778186635 | 11.11° C | 51% | 1008.5 hPa | 0 mm | - | 158 W/m² | - |
| 1778186333 | 11.67° C | 51% | 1008.3 hPa | 0 mm | - | 361 W/m² | - |
| 1778186031 | 10.56° C | 48% | 1008.5 hPa | 0 mm | - | 355 W/m² | - |
| 1778185727 | 10.56° C | 51% | 1008.5 hPa | 0 mm | - | 154 W/m² | - |
| 1778185423 | 11.11° C | 51% | 1008.5 hPa | 0 mm | - | 174 W/m² | - |
| 1778185118 | 11.11° C | 49% | 1008.6 hPa | 0 mm | - | 102 W/m² | - |
| 1778184814 | 12.22° C | 46% | 1008.7 hPa | 0 mm | - | 120 W/m² | - |
| 1778184511 | 12.78° C | 43% | 1008.5 hPa | 0 mm | - | 454 W/m² | - |
| 1778184207 | 11.11° C | 46% | 1008.6 hPa | 0 mm | - | 165 W/m² | - |
| 1778183903 | 11.67° C | 45% | 1008.7 hPa | 0 mm | - | 131 W/m² | - |
| 1778183601 | 12.78° C | 39% | 1008.8 hPa | 0 mm | - | 533 W/m² | - |
| 1778183298 | 12.22° C | 41% | 1008.6 hPa | 0 mm | - | 545 W/m² | - |
| 1778182994 | 11.11° C | 47% | 1009 hPa | 0 mm | - | 605 W/m² | - |
| 1778182691 | 11.67° C | 46% | 1008.9 hPa | 0 mm | - | 603 W/m² | - |
| 1778182388 | 11.11° C | 50% | 1009.2 hPa | 0 mm | - | 598 W/m² | - |
| 1778182083 | 11.11° C | 48% | 1008.9 hPa | 0 mm | - | 616 W/m² | - |
| 1778181780 | 10.56° C | 51% | 1008.9 hPa | 0 mm | - | 147 W/m² | - |
| 1778181476 | 11.11° C | 45% | 1009 hPa | 0 mm | - | 148 W/m² | - |
| 1778181173 | 10.56° C | 44% | 1009 hPa | 0 mm | - | 281 W/m² | - |
| 1778180870 | 10.56° C | 47% | 1009 hPa | 0 mm | - | 186 W/m² | - |
| 1778180569 | 10.56° C | 46% | 1009.2 hPa | 0 mm | - | 195 W/m² | - |
| 1778180267 | 11.67° C | 49% | 1009.2 hPa | 0 mm | - | 331 W/m² | - |
| 1778179963 | 11.67° C | 47% | 1009.1 hPa | 0 mm | - | 392 W/m² | - |
| 1778179661 | 11.11° C | 43% | 1009.3 hPa | 0 mm | - | 468 W/m² | - |
* Rain latest hour (hover to see other rain measurements)
** Current wind speed in m/s (hover to see current wind gust speed)